Location: Cartignies
(50.0929°N, 3.8447°E)
Time: 13:52:39
(UTC+00:00)

Cosmos 1151 Rocket - Pass Details

Date: 12 January 2026
Orbit: 585 x 605 km, 82.5° (Epoch: 16 February)

Event Time Altitude Azimuth Distance (km) Brightness Sun altitude
Rises 16:35:06 0° 182° (S) 2,805 6.9 -4.8°
Reaches altitude 10° 16:37:17 10° 180° (S) 1,912 6.0 -5.1°
Maximum altitude 16:41:29 69° 97° (E) 636 3.0 -5.7°
Drops below altitude 10° 16:45:45 10° 14° (NNE) 1,939 5.2 -6.3°
Sets 16:47:58 0° 12° (NNE) 2,850 6.1 -6.6°
